STARLINK-31687, 59798

Orbit data source: Space-Track

STARLINK-31687, 59798 is a payload satellite owned by SpaceX/Seattle (US) in LEO that was launched on Sat, 18 May 2024 UTC via an FALCON 9 launch vehicle from the Air Force Eastern Test Range (AFETR). Payload-class satellites include a variety of spacecraft equipped with specific instruments for various scientific and technological missions. These include communications satellites like Starlink; space stations such as the ISS; scientific satellites like the Hubble; Earth observation satellites from companies like Planet Labs, Umbra, and HawkEye 360; GPS; miniature CubeSats for education and research; and military/defense satellites.

Loading next visibility...
Identifier
59798, 2024-093S
Orbit
LEO
Country
Flag of USUS
Related business
Manufacturer
SpaceX/Seattle
Mission
Operational Commercial Communications
Bus & Motor
STARLINK V2M, Unknown motor
Mass
730 kg wet, ~700 kg dry
Launch date (UTC)
2024-05-18 (2 years ago)
Launch vehicle
FALCON 9
Launch site
Air Force Eastern Test Range (AFETR)
Object type
Payload
Rocket body
Debris
Shape & HBR
Box + 2 Pan, 17.7 m
Radar Cross Section
33.884 m², Large (>1 m²)

Expand to show TLE details & history
Last TLE update: 2 days ago

TLE from 2 days ago
0 STARLINK-31687
1 59798U 24093S   26124.61209883  .00002877  00000-0  11403-3 0  9994
2 59798  42.9981 253.4493 0001075 199.4989 160.5821 15.27576468111248
Epoch: 2026-05-04T14:41Z
TLE epoch observation values (Epoch: 2026-05-04T14:41:25.338Z)
Latitude
-0.00008°
Longitude
170.59484°
Altitude
483.53 km
Speed
7.625 km/s
True Right ascension
16h 53m 47s
True Declination
0° 00' 00"
Sunlit
Object was in full shadow at epoch
Visualization orbit readout
Latitude
Unknown
Longitude
Unknown
Altitude
Unknown
Speed
Unknown
Apparent Right ascension
Unknown
Apparent Declination
Unknown
Sunlit
N/A
Visualization observer readout
Local Sidereal Time
21:17:27
Azimuth
Unknown
Elevation
Unknown
Doppler factor
Unknown
Orbital elements
Apogee altitude
485.743 km
Perigee altitude
484.267 km
Semi-major axis
6,863.142 km
Eccentricity
0.00011
Inclination
42.9981°
RAAN
253.4493°
Arg. of periapsis
199.4989°
True anomaly
160.58619°
Mean anomaly
160.5821°
Eccentric anomaly
160.58415°
Mean motion
3.81732 °/min
Orbital period
94.31 mins
BSTAR
0.00011403
Loading maneuver chart data...
Computing Atmospheric mass density...
Loading historical data...
Loading historical data...
Loading historical data...
Loading historical data...
Loading historical data...
Loading historical data...
Loading historical data...

Documentation

Showing up to 5 results
|